Location: Hepcat Sky Observatory
(29.9800°N, 95.6500°W)
Time: 06:37:23
(UTC-05:00)

Cosmos 2366 rocket - Visible Passes

Search period start: 02 September 2014 00:00
Search period end: 12 September 2014 00:00
Orbit: 955 x 998 km, 82.9° (Epoch: 31 August)

Date Brightness Start Highest point End Pass type
(mag) Time Alt. Az. Time Alt. Az. Time Alt. Az.
02 Sep 6.8 05:43:16 10° SE 05:47:05 17° E 05:50:54 10° NE visible
03 Sep 5.7 06:06:59 10° SSE 06:12:28 35° E 06:17:56 10° NNE visible
04 Sep 4.4 06:31:54 10° S 06:38:00 71° E 06:44:06 10° N visible
05 Sep 6.8 05:15:50 10° ESE 05:18:56 14° E 05:22:02 10° NE visible
06 Sep 5.9 05:39:05 10° SSE 05:44:17 30° E 05:49:29 10° NNE visible
07 Sep 4.6 06:03:46 10° S 06:09:47 60° E 06:15:48 10° NNE visible
08 Sep 6.9 04:48:44 10° ESE 04:50:48 12° E 04:52:52 10° ENE visible
08 Sep 4.0 06:29:20 10° SSW 06:35:26 69° W 06:41:32 10° N visible
09 Sep 6.1 05:11:14 10° SE 05:16:07 25° E 05:20:59 10° NE visible
10 Sep 4.8 05:35:41 10° SSE 05:41:34 51° E 05:47:28 10° NNE visible
11 Sep 3.9 06:01:04 10° S 06:07:11 81° W 06:13:20 10° N visible
